Wind_Speed
34 35 36 36 36 37 38 38 39 40 41 41 41 41 42 43 45 46 46 46 46 46 46 46 47 48 48 49 49 49 49 49 48 47 47 48 48 49 49 49 49 50 50
33 34 35 35 35 36 37 37 38 39 40 41 42 42 42 44 45 46 46 45 46 46 46 46 47 47 46 46 47 47 47 47 46 46 47 47 48 48 48 48 48 49 48
32 32 34 34 35 35 36 37 38 38 39 39 41 42 43 43 44 44 44 44 44 44 44 45 45 46 45 45 45 46 46 46 46 46 46 46 47 47 47 47 47 48 48
30 31 32 33 34 35 36 37 38 38 38 38 39 40 42 42 43 43 42 42 42 42 43 43 43 43 43 43 44 44 44 45 45 46 45 45 45 45 45 45 46 47 47
31 31 32 33 34 36 36 37 38 38 38 38 39 39 40 40 40 40 41 41 41 41 41 41 41 42 42 43 42 42 42 43 44 44 43 43 43 44 44 44 44 44 44
31 31 32 33 34 35 36 36 37 38 38 38 38 38 38 38 38 38 38 39 39 39 39 40 40 40 41 41 41 42 42 42 42 42 41 40 40 41 41 41 41 41 42
30 30 31 32 32 33 34 35 36 37 37 37 37 38 38 38 37 37 37 37 37 38 38 38 39 39 39 40 40 41 41 41 41 41 41 40 40 40 40 40 40 39 39
30 31 31 31 31 32 33 34 34 35 35 36 36 36 36 35 35 35 36 36 36 36 37 37 38 38 38 39 39 40 40 40 40 40 40 40 39 39 38 38 38 38 38
30 30 30 31 31 32 32 32 33 33 33 33 34 34 34 34 34 35 35 35 35 35 35 35 36 36 37 38 38 38 38 38 39 39 39 38 37 37 37 37 37 37 37
29 30 30 31 31 31 31 30 31 31 32 32 32 32 33 33 33 33 34 34 34 34 34 34 34 35 35 35 36 36 36 36 37 37 37 37 36 36 36 36 36 36 36
30 30 30 30 30 30 29 29 29 30 30 30 30 30 31 31 31 31 31 32 32 32 32 32 32 33 33 33 33 33 33 33 34 34 34 34 35 35 35 34 34 34 34
29 30 29 29 29 29 29 29 29 30 30 29 29 29 29 29 30 30 30 31 31 30 30 30 30 31 31 31 31 31 30 30 31 31 31 31 32 32 32 32 32 32 32
28 28 28 28 28 28 28 29 30 30 30 29 29 28 28 28 28 28 28 28 29 29 29 28 29 29 29 29 29 29 29 29 28 28 28 29 29 29 29 29 30 30 29
28 28 28 27 27 28 28 29 29 29 28 28 28 28 28 28 27 27 27 27 27 27 28 28 28 28 28 27 28 28 29 28 28 28 28 28 28 27 27 26 26 26 26
27 27 27 27 27 28 28 28 28 28 28 28 28 28 28 27 27 26 26 26 26 27 27 27 27 27 28 28 29 29 28 28 27 27 27 27 26 25 25 24 24 24 24
26 26 26 27 27 28 28 28 28 27 27 27 27 27 27 26 26 26 26 26 26 26 26 25 25 26 26 26 26 26 26 26 25 25 25 25 24 23 23 23 23 23 22
25 25 26 26 27 27 27 27 27 27 27 26 26 26 26 26 26 26 25 25 25 25 25 24 24 24 23 23 23 23 22 23 23 23 23 22 22 22 22 22 21 21 21
25 25 25 26 26 26 25 25 25 25 25 24 24 25 25 26 25 25 24 24 24 24 24 23 22 22 21 21 21 21 21 22 21 21 20 20 20 20 20 20 19 19 19
25 25 25 25 25 25 24 24 24 23 23 23 23 23 23 24 24 23 23 23 23 23 22 22 21 20 20 20 20 20 20 20 20 20 19 20 19 19 19 19 19 18 18
25 25 25 24 24 23 22 22 22 22 22 22 22 22 22 22 21 21 21 21 21 21 21 20 20 19 18 19 19 19 19 19 19 18 18 18 18 18 18 17 17 16 16
24 24 24 23 22 21 21 21 21 21 20 19 19 19 19 19 19 19 19 19 19 19 19 18 18 18 18 18 18 17 17 17 17 17 17 17 17 17 16 16 15 14 14
24 23 22 22 21 20 20 19 19 19 18 17 17 17 17 17 17 17 17 17 17 17 17 17 17 16 16 16 16 16 16 16 16 16 16 16 16 15 14 14 14 13 13
22 21 21 20 19 18 18 17 17 16 16 16 16 16 16 15 15 15 15 15 15 15 15 14 14 14 14 14 14 14 14 14 14 15 15 15 15 14 14 13 13 13 13
21 20 19 18 17 16 16 15 15 14 14 14 14 14 14 15 15 14 14 14 13 13 12 12 11 11 12 12 12 12 13 13 13 13 13 13 13 13 13 13 12 12 12
19 18 17 16 16 15 14 14 14 14 14 13 13 13 14 14 13 12 12 11 10 10 10 10 10 10 11 11 11 11 11 11 11 11 11 11 11 12 12 12 12 11 11
17 16 16 15 15 14 14 13 13 13 13 13 13 13 13 12 11 10 9 9 9 9 9 9 9 10 10 10 10 10 10 10 9 9 9 9 9 9 10 11 11 10 10
Wind_Direction
265 266 266 267 266 267 269 268 267 266 267 269 271 270 271 272 273 272 274 274 273 271 270 270 270 271 271 271 271 272 271 271 270 269 269 270 271 271 271 272 273 273 274
266 266 267 268 268 269 269 268 268 270 270 271 272 271 273 275 275 274 274 274 273 271 271 271 271 272 272 272 272 271 270 270 270 270 270 271 271 272 271 271 272 273 274
267 268 268 268 267 268 269 268 269 270 271 272 273 274 275 276 276 274 273 274 273 271 271 271 271 272 272 272 272 271 270 270 270 270 270 271 271 271 272 271 272 273 274
269 270 269 269 268 267 268 269 270 272 273 274 276 276 276 276 276 275 274 274 273 272 272 272 272 272 271 271 271 271 271 270 269 269 270 270 271 271 272 272 272 273 274
271 271 270 271 270 269 270 270 272 273 274 275 277 277 277 278 278 278 276 275 274 274 273 273 272 272 272 271 271 271 271 271 270 269 270 271 271 272 273 273 273 273 274
272 272 273 272 272 271 272 272 274 275 275 276 277 278 279 280 280 279 278 277 275 274 274 273 273 273 272 271 271 271 271 270 270 269 269 271 272 273 273 273 273 274 274
273 273 273 274 273 273 274 274 276 276 276 277 278 279 280 280 279 279 278 277 275 274 275 274 274 274 273 272 271 271 271 270 270 270 270 271 272 273 273 273 273 274 275
276 276 275 275 275 275 276 277 278 279 278 278 278 279 279 279 279 278 277 276 275 276 275 274 273 273 273 272 272 272 271 270 269 269 270 271 272 272 272 272 273 274 275
278 276 275 276 276 277 277 278 279 281 281 281 281 280 279 278 277 276 276 275 275 276 276 276 274 274 273 273 273 273 271 270 270 270 271 271 271 271 272 273 274 274 275
277 277 276 277 277 278 279 279 281 281 281 281 280 280 279 278 277 277 276 276 277 278 278 277 276 275 274 274 275 274 272 271 271 271 271 270 270 270 271 273 274 275 276
276 278 278 278 279 280 280 281 282 282 282 282 281 280 280 279 278 278 277 278 278 278 278 277 277 276 276 275 275 274 273 272 271 271 271 271 270 270 270 272 273 275 276
275 277 277 277 278 278 280 281 282 282 283 283 282 282 282 281 280 279 279 279 279 278 278 277 276 276 275 274 274 275 274 273 273 272 271 271 270 270 271 272 273 275 276
275 276 276 277 278 279 280 282 283 283 283 283 283 283 282 282 281 280 279 279 279 279 279 278 276 275 274 274 275 275 274 273 273 273 272 271 271 272 272 273 274 276 277
275 276 277 277 278 279 281 282 283 283 283 283 282 282 283 283 283 282 281 281 280 280 280 278 277 275 274 274 274 274 274 274 274 274 273 272 272 273 274 275 276 278 279
275 276 276 277 279 280 282 284 285 284 283 283 283 282 282 281 282 283 282 281 280 280 280 279 276 275 275 273 274 274 274 273 274 275 274 273 272 273 274 275 276 278 281
274 274 275 277 280 282 283 283 284 283 282 283 282 281 280 280 281 282 282 280 279 279 279 279 278 277 276 275 275 275 275 274 275 276 275 272 271 272 274 274 275 276 279
271 273 275 278 281 282 283 283 283 283 283 282 281 280 280 281 281 280 281 281 279 278 278 278 278 278 277 277 277 278 277 276 276 275 273 271 270 272 273 274 274 274 276
272 275 278 279 282 284 283 283 284 284 283 281 282 281 281 281 281 280 280 280 278 277 277 278 278 277 277 277 277 277 276 275 275 274 271 270 271 272 273 272 273 274 276
274 277 279 281 283 284 284 284 284 283 282 282 282 283 283 283 281 279 279 280 278 276 276 277 277 277 278 278 278 278 277 276 275 274 270 270 272 272 272 272 272 273 274
273 277 279 280 282 282 282 282 282 282 282 282 282 284 286 284 281 280 280 279 278 278 277 276 275 277 280 279 279 279 278 277 275 273 271 270 271 271 271 271 272 272 272
273 276 278 280 282 281 281 280 281 282 283 283 284 287 287 285 284 284 282 280 280 280 279 277 276 277 279 279 279 278 277 277 275 273 271 269 269 269 268 267 267 268 269
274 275 276 278 280 282 283 283 283 282 281 282 284 287 289 288 287 288 286 283 282 282 280 278 277 277 279 279 280 279 277 276 274 272 270 268 267 266 264 262 261 263 265
273 273 274 276 278 280 281 282 283 281 281 283 285 288 290 291 292 291 288 286 286 284 282 281 278 277 277 278 279 279 279 278 275 272 269 265 263 261 261 261 261 261 262
270 271 272 273 275 277 279 282 284 282 280 284 286 289 292 294 294 293 292 291 288 286 283 281 280 279 279 280 280 281 283 282 279 274 269 265 261 257 256 257 258 260 261
269 270 269 269 269 271 274 279 282 282 281 281 286 291 294 296 295 294 295 293 290 287 284 282 282 283 282 284 284 284 284 285 283 277 269 265 260 255 254 253 253 255 254
268 266 264 264 264 268 272 277 281 282 281 280 284 290 293 293 292 292 293 293 291 286 284 281 283 285 285 285 287 288 288 288 286 279 267 262 258 254 251 248 247 248 247
Height
5627 5628 5629 5630 5630 5631 5632 5632 5632 5633 5634 5634 5633 5633 5632 5632 5630 5629 5628 5626 5625 5624 5624 5623 5623 5623 5622 5621 5620 5619 5619 5618 5619 5620 5619 5618 5617 5617 5616 5616 5615 5614 5614
5618 5619 5619 5620 5621 5621 5622 5622 5622 5623 5623 5623 5622 5621 5620 5619 5618 5617 5615 5614 5612 5612 5611 5610 5610 5609 5609 5608 5607 5606 5606 5605 5606 5607 5606 5605 5605 5604 5604 5603 5602 5602 5601
5609 5610 5610 5610 5611 5612 5612 5612 5613 5612 5612 5611 5610 5609 5608 5607 5606 5604 5602 5601 5600 5599 5598 5598 5597 5597 5596 5596 5595 5594 5594 5593 5593 5594 5594 5593 5592 5591 5591 5590 5590 5589 5588
5601 5601 5601 5601 5602 5602 5603 5603 5603 5602 5602 5601 5600 5598 5597 5595 5594 5592 5590 5588 5587 5586 5586 5585 5585 5584 5584 5583 5583 5582 5581 5581 5581 5581 5581 5581 5580 5579 5579 5578 5578 5577 5576
5593 5593 5592 5592 5592 5593 5593 5593 5593 5592 5591 5590 5589 5588 5586 5584 5582 5580 5578 5577 5576 5575 5574 5574 5573 5572 5572 5571 5571 5570 5569 5569 5568 5568 5569 5569 5568 5568 5567 5566 5565 5564 5563
5585 5584 5583 5583 5583 5583 5583 5583 5582 5582 5581 5580 5578 5577 5575 5573 5571 5569 5567 5566 5565 5564 5563 5563 5562 5561 5560 5559 5559 5558 5557 5557 5557 5557 5557 5557 5557 5556 5555 5554 5553 5553 5552
5576 5575 5575 5574 5573 5573 5573 5573 5572 5571 5571 5569 5568 5566 5564 5563 5561 5559 5557 5556 5554 5554 5553 5552 5551 5550 5549 5548 5547 5547 5546 5545 5546 5546 5546 5546 5546 5545 5544 5543 5542 5541 5540
5568 5566 5566 5565 5564 5564 5564 5563 5562 5561 5560 5559 5557 5555 5554 5552 5550 5548 5547 5545 5544 5543 5542 5541 5540 5539 5538 5538 5537 5536 5535 5535 5535 5535 5535 5535 5534 5534 5533 5532 5531 5531 5530
5559 5558 5557 5556 5555 5555 5555 5554 5553 5552 5550 5549 5547 5545 5544 5542 5540 5539 5537 5535 5534 5533 5532 5531 5530 5529 5528 5527 5526 5526 5525 5525 5524 5524 5524 5524 5523 5523 5522 5522 5521 5520 5520
5551 5549 5548 5547 5546 5546 5545 5545 5544 5542 5541 5539 5538 5536 5534 5533 5531 5529 5527 5526 5525 5524 5523 5522 5520 5519 5518 5517 5516 5516 5515 5515 5514 5513 5513 5513 5513 5512 5512 5511 5511 5510 5509
5542 5541 5540 5539 5538 5537 5536 5536 5534 5533 5532 5530 5528 5527 5525 5523 5522 5520 5518 5517 5516 5515 5514 5512 5511 5510 5509 5508 5507 5506 5506 5505 5505 5504 5503 5503 5503 5503 5502 5501 5501 5500 5499
5534 5533 5532 5530 5530 5529 5528 5527 5525 5524 5523 5521 5519 5518 5516 5514 5512 5511 5509 5508 5506 5505 5505 5503 5502 5501 5500 5499 5498 5498 5497 5496 5496 5495 5495 5494 5494 5493 5493 5492 5491 5491 5490
5526 5525 5523 5522 5521 5520 5520 5519 5517 5515 5514 5512 5510 5509 5507 5506 5504 5502 5500 5499 5497 5497 5496 5495 5494 5493 5492 5491 5491 5490 5489 5488 5488 5487 5487 5486 5486 5485 5484 5484 5483 5482 5482
5517 5517 5516 5515 5514 5512 5511 5510 5508 5506 5505 5503 5502 5500 5499 5497 5496 5494 5492 5491 5489 5488 5487 5486 5485 5484 5484 5483 5483 5482 5481 5481 5480 5480 5479 5478 5478 5477 5477 5476 5476 5475 5474
5510 5509 5508 5507 5506 5505 5503 5501 5500 5498 5496 5495 5493 5491 5490 5489 5487 5486 5484 5483 5481 5480 5479 5478 5477 5476 5476 5475 5475 5474 5473 5473 5472 5472 5471 5471 5470 5470 5469 5469 5468 5467 5466
5502 5501 5500 5499 5498 5497 5495 5493 5491 5489 5487 5486 5484 5483 5481 5480 5479 5478 5476 5474 5473 5472 5471 5470 5469 5468 5468 5467 5466 5466 5465 5465 5464 5464 5464 5463 5463 5463 5462 5462 5461 5460 5460
5494 5493 5492 5491 5490 5488 5487 5485 5483 5482 5479 5477 5476 5474 5473 5472 5471 5470 5468 5467 5465 5464 5463 5463 5462 5461 5460 5460 5459 5459 5458 5457 5457 5457 5456 5456 5456 5456 5455 5455 5454 5454 5453
5486 5485 5484 5483 5482 5480 5479 5477 5475 5474 5472 5470 5468 5466 5465 5464 5463 5462 5460 5459 5458 5457 5456 5455 5455 5454 5453 5453 5452 5452 5451 5451 5450 5450 5450 5449 5449 5449 5449 5448 5448 5448 5447
5478 5478 5477 5476 5474 5472 5471 5469 5468 5466 5464 5463 5461 5459 5458 5456 5455 5454 5453 5452 5451 5450 5449 5448 5448 5447 5447 5446 5446 5445 5445 5444 5444 5443 5443 5443 5443 5443 5442 5442 5442 5441 5441
5471 5470 5469 5468 5466 5465 5463 5462 5460 5459 5457 5456 5455 5453 5452 5450 5449 5448 5446 5445 5444 5443 5442 5442 5441 5441 5441 5440 5440 5439 5438 5438 5438 5437 5437 5437 5437 5437 5437 5436 5436 5436 5436
5463 5462 5461 5460 5459 5458 5456 5455 5454 5452 5451 5450 5449 5447 5445 5444 5443 5441 5440 5439 5438 5437 5436 5436 5435 5435 5435 5434 5434 5433 5433 5432 5432 5431 5431 5431 5431 5431 5431 5431 5431 5431 5431
5455 5454 5454 5453 5452 5451 5450 5449 5447 5446 5445 5444 5443 5442 5440 5439 5437 5436 5435 5434 5433 5432 5431 5430 5430 5429 5429 5429 5428 5428 5427 5427 5426 5426 5426 5426 5426 5426 5426 5426 5426 5426 5426
5447 5447 5447 5446 5446 5445 5444 5443 5442 5441 5440 5439 5438 5437 5435 5434 5433 5431 5430 5429 5428 5427 5426 5425 5425 5425 5424 5424 5423 5423 5422 5422 5421 5420 5420 5420 5421 5421 5422 5422 5422 5422 5422
5440 5440 5440 5440 5440 5439 5439 5438 5437 5436 5435 5434 5433 5432 5431 5430 5428 5427 5426 5424 5424 5423 5422 5421 5421 5421 5420 5420 5419 5419 5418 5417 5416 5416 5416 5416 5416 5417 5417 5418 5418 5419 5419
5434 5434 5434 5434 5434 5434 5434 5433 5433 5432 5431 5430 5429 5428 5427 5426 5424 5423 5422 5421 5420 5419 5419 5418 5418 5418 5417 5416 5416 5415 5414 5413 5413 5412 5412 5412 5412 5413 5413 5414 5414 5415 5415
5428 5428 5428 5429 5429 5429 5429 5429 5428 5427 5427 5426 5425 5424 5423 5422 5421 5420 5419 5418 5417 5417 5416 5416 5415 5415 5414 5413 5412 5411 5411 5410 5409 5409 5409 5409 5409 5409 5410 5410 5411 5412 5412